MET5208 - Greenville - Spartanburg to Boston

Embraer ERJ-170LR
N924AG
2 hrs 00 mins
691 nm
Scheduled - Daily

Bid/PiRep Status

Bid was submitted on Jan 01 2017.

PiRep # 74570: Approved by Sean Doyle on January 2nd, 2017 20:08 UTC

Departure

Departing from
Greenville - Spartanburg (GSP)
Departure gate
Ramp
Scheduled Departure
GMT 1500
Local 1100
METAR KGSP 270053Z 18005KT 10SM SCT070 23/16 A3005 RMK AO2 SLP165 T02330156
TAF KGSP 262322Z 2700/2724 18003KT P6SM FEW070 SCT180 FM270600 33003KT P6SM FEW060 BKN150 FM271400 03007KT P6SM FEW080 SCT120

Route Map

Planning Resources

SPA V605 GENOD GSO J14 RIC
SPA RDU FAK OTT6
SPA J37 GVE J42 OTT RAVNN5
SPA JAC EVING LOOEY JAXSN CREWE FAK OGATE BRV OTT DEALE RAVNN
CEVVY SPA J37 GVE J42 OTT RAVNN5 COLUM
Route:
OFP Layout:
Units:
Detailed Navlog:
ETOPS Planning:
Plan Stepclimbs:
Runway Analysis:
Include NOTAMS:
FIR NOTAMS:
Flight Maps:

Return Flights

MET5207
Embraer ERJ-170LR
1230 GMT
MET5209
Embraer ERJ-170LR
2130 GMT

Popularity

Hub Current Bids PiReps this month Total PiReps
KMCI 0 0 2
KLAX 0 0 0
KBOS 0 0 2